Location: Unspecified
(0.0000°N, 0.0000°E)
Time: 06:58:30
(UTC+02:00)

Sapphire - Visible Passes

Search period start: 25 April 2018 00:00
Search period end: 05 May 2018 00:00
Orbit: 782 x 791 km, 67.1° (Epoch: 24 April)

Date Brightness Start Highest point End Pass type
(mag) Time Alt. Az. Time Alt. Az. Time Alt. Az.
01 May ? 21:52:43 10° NNE 21:52:49 10° NNE 21:52:49 10° NNE visible
02 May ? 21:20:08 10° NE 21:20:14 10° NE 21:20:14 10° NE visible
02 May ? 23:00:39 10° NW 23:00:45 11° NW 23:00:45 11° NW visible
03 May ? 22:25:46 10° NNW 22:27:55 25° NNW 22:27:55 25° NNW visible
04 May ? 21:50:55 10° NNW 21:54:51 49° N 21:54:51 49° N visible
